Change the Weather History Date:

Monday, June 16, 2014

  Actual Average Record
Temperature  
Mean Temperature 77 °F -  
Max Temperature 88 °F 81 °F 95 °F (1952)
Min Temperature 66 °F 62 °F 45 °F (1961)
Cooling Degree Days 12    
Growing Degree Days 27 (Base 50)    
Moisture  
Dew Point 68 °F    
Average Humidity 77    
Maximum Humidity 97    
Minimum Humidity 53    
Precipitation  
Precipitation 0.00 in - - ()
Sea Level Pressure  
Sea Level Pressure 30.09 in    
Wind  
Wind Speed 3 mph (SW)    
Max Wind Speed 12 mph    
Max Gust Speed -    
Visibility 10 miles    
Events      
Averages and records for this station are not official NWS values.
T = Trace of Precipitation, MM = Missing Value Source: NWS Daily Summary

Daily Weather History Graph

Daily Weather History Graph

Search for Another Location

Airport or City:

Trip Planner

Search our weather history database for the weather conditions in past years. The results will help you decide how hot, cold, wet, or windy it might be!

Date:

Astronomy

Jun. 16, 2014 Rise Set
Actual Time 6:11 AM EDT 9:05 PM EDT
Civil Twilight 5:38 AM EDT 9:37 PM EDT
Nautical Twilight 4:58 AM EDT 10:18 PM EDT
Astronomical Twilight 4:11 AM EDT 11:05 PM EDT
Moon 11:58 PM EDT (6/16) 10:12 AM EDT (6/16)
Length of Visible Light 15h 58m
Length of Day
14h 54m
Waning Gibbous, 83% of the Moon is Illuminated
Jun 16
Waning Gibbous
Jun 19
Last Quarter
Jun 27
New
Jul 5
First Quarter
Jul 12
Full

Hourly Weather History & Observations

Time (EDT) Temp. Heat Index Dew Point Humidity Pressure Visibility Wind Dir Wind Speed Gust Speed Precip Events Conditions
12:53 AM 66.9 °F - 64.0 °F 90% 30.08 in 10.0 mi Calm Calm - N/A   Clear
1:53 AM 66.0 °F - 64.9 °F 96% 30.08 in 8.0 mi Calm Calm - N/A   Clear
2:53 AM 66.0 °F - 64.9 °F 96% 30.08 in 8.0 mi Calm Calm - N/A   Scattered Clouds
3:53 AM 66.9 °F - 66.0 °F 97% 30.08 in 10.0 mi Calm Calm - N/A   Overcast
4:53 AM 68.0 °F - 66.0 °F 93% 30.09 in 10.0 mi Calm Calm - N/A   Scattered Clouds
5:53 AM 66.9 °F - 64.9 °F 93% 30.10 in 8.0 mi Calm Calm - N/A   Clear
6:53 AM 66.0 °F - 64.9 °F 96% 30.12 in 10.0 mi Calm Calm - N/A   Clear
7:53 AM - - - N/A% 30.13 in - North - - N/A   Unknown
8:53 AM 75.9 °F - 66.9 °F 74% 30.13 in 10.0 mi South 5.8 mph - N/A   Clear
9:53 AM 81.0 °F 83.8 °F 68.0 °F 65% 30.14 in 10.0 mi WSW 8.1 mph - N/A   Mostly Cloudy
10:53 AM 81.0 °F 84.1 °F 69.1 °F 67% 30.14 in 10.0 mi WSW 11.5 mph - N/A   Partly Cloudy
11:53 AM 84.0 °F 88.4 °F 70.0 °F 63% 30.12 in 10.0 mi SW 5.8 mph - N/A   Scattered Clouds
12:53 PM 84.9 °F 89.4 °F 70.0 °F 61% 30.11 in 10.0 mi SW 10.4 mph - N/A   Scattered Clouds
1:53 PM 87.1 °F 92.0 °F 70.0 °F 57% 30.09 in 10.0 mi SW 8.1 mph - N/A   Scattered Clouds
2:53 PM 84.0 °F 89.0 °F 71.1 °F 65% 30.08 in 10.0 mi North 10.4 mph - N/A   Mostly Cloudy
3:53 PM 82.0 °F 84.5 °F 66.9 °F 60% 30.08 in 10.0 mi SW 10.4 mph - N/A   Mostly Cloudy
4:53 PM 84.0 °F 87.8 °F 69.1 °F 61% 30.06 in 10.0 mi SW 4.6 mph - N/A   Mostly Cloudy
5:53 PM 88.0 °F 92.1 °F 69.1 °F 53% 30.06 in 10.0 mi West 9.2 mph - N/A   Partly Cloudy
6:53 PM 84.9 °F 88.8 °F 69.1 °F 59% 30.07 in 10.0 mi SW 6.9 mph - N/A   Scattered Clouds
7:53 PM 84.0 °F 89.0 °F 71.1 °F 65% 30.08 in 10.0 mi Calm Calm - N/A   Partly Cloudy
8:53 PM 78.1 °F - 72.0 °F 81% 30.06 in 10.0 mi SSW 3.5 mph - N/A   Mostly Cloudy
9:53 PM 73.9 °F - 70.0 °F 87% 30.06 in 10.0 mi Calm Calm - N/A   Clear
10:53 PM 73.0 °F - 70.0 °F 90% 30.05 in 9.0 mi SSW 3.5 mph - N/A   Clear
11:53 PM 72.0 °F - 70.0 °F 93% 30.05 in 6.0 mi Calm Calm - N/A   Clear